Location: Bailleul
(50.3375°N, 2.8513°E)
Time: 09:17:51
(UTC+00:00)

Cosmos 2016 Rocket - Pass Details

Date: 26 October 2021
Orbit: 946 x 1000 km, 83.0° (Epoch: 01 December)

Event Time Altitude Azimuth Distance (km) Brightness Sun altitude
Exits shadow 21:56:25 12° 297° (WNW) 2,547 6.6 -47.6°
Maximum altitude 21:57:24 12° 307° (NW) 2,517 6.6 -47.7°
Drops below altitude 10° 21:59:52 10° 331° (NNW) 2,691 6.8 -47.9°
Sets 22:04:13 0° 360° (N) 3,635 7.5 -48.3°
